User: anonymous   Login
Location: Borea
(45.6167°N, 23.0167°E)
Time: 20:32:06
(UTC+00:00)
Language:

CZ-6A DEB - Orbit

View from above orbital plane
View from above orbital plane
View from above satellite
View from above satellite

Ground track
Ground track

The orbit data is extracted from the following two-line orbital elements,

1 56666U 22151AGS 24056.34043189  .00003999  00000-0  12923-2 0  9998
2 56666  98.8136  82.9598 0083753 275.7975  83.3667 14.37694950 43968
Epoch (UTC): 25 February 2024 08:10:13
Eccentricity: 0.0083753
inclination: 98.8136°
perigee height: 706 km
apogee height: 826 km
right ascension of ascending node: 82.9598°
argument of perigee: 275.7975°
revolutions per day: 14.37694950
mean anomaly at epoch: 83.3667°
orbit number at epoch: 4396

The dashed part of the orbit path shows where the satellite is in the earth's shadow,  

DLR